Showing default

QIANFAN-30, 61563

Orbit data source: Space-Track

QIANFAN-30, 61563 is a Chinese payload satellite in LEO that was launched on Tue, 15 Oct 2024 UTC via a CHANG ZHENG 6A launch vehicle from the Taiyaun Space Center, China (TSC). Payloads include a variety of satellites, spacecraft, and rockets equipped with specific instruments for various scientific and technological missions. These include communications satellites like Starlink; space stations such as the ISS; scientific satellites like the Hubble; Earth observation satellites from companies like Planet Labs, Umbra, and HawkEye 360; GPS; miniature CubeSats for education and research; and military/defense satellites.

Loading next visibility...
QIANFAN-30 details
Identifier
61563, 2024-185M
Orbit
LEO
Last TLE update14 hours ago
Origin
Flag of CNYUANX (CN / PRC)
ManufacturerGESIH/SECM
MissionOperational Commercial Communications
Bus & MotorQIANFAN, Unknown motor
Mass300 kg wet, ~300 kg dry
Launch date (UTC)
2024-10-15 (4 months ago)
Launch vehicle
CHANG ZHENG 6A
Launch site
Taiyaun Space Center, China (TSC)
Object type
Payload
Rocket body
Debris
Shape & HBRBox + 1 Pan, 10 m
Radar Cross Section13.200 m², Large (>1 m²)

Expand to show TLE details & history

TLE from 14 hours ago
0 QIANFAN-30
1 61563U 24185M   25046.89719817  .00000892  00000-0  53328-3 0  9991
2 61563  88.9859 112.1287 0008109 159.4074 200.7436 14.06272887 27354
Epoch: 2025-02-15T21:31Z
Definitive object data (Epoch: 2025-02-15T21:31:57.921Z)
Latitude-0.00012°
Longitude2.99934°
Altitude880.687 km
Speed7.409 km/s
True Right ascension07h 28m 30s
True Declination0° 00' 00"
Sunlit
Object was in full shadow at TLE epoch
Visualization TLE readout
Latitude86.10076°
Longitude17.90481°
Altitude884.1 km
Speed7.418 km/s
Apparent Right ascension02h 45m 43s
Apparent Declination32° 41' 57"
Sunlit
Object is in daylight
Visualization observer readout
Local Sidereal Time14:22:34
Azimuth354.905° N
Elevation-17.187°
Doppler factor1
Orbital elements
Apogee altitude875.002 km
Perigee altitude863.248 km
Semi-major axis7,247.262 km
Eccentricity0.0008109
Inclination88.9859°
RAAN112.1287°
Arg. of periapsis159.4074°
True anomaly200.71072°
Mean anomaly200.7436°
Eccentric anomaly200.72716°
Mean motion3.51789 °/min
BSTAR0.00053328
Orbital period102.33 mins
Loading maneuver chart data...
Loading historical data...
Loading historical data...
Loading historical data...
Loading historical data...
Loading historical data...
Loading historical data...
Loading historical data...

QIANFAN-30 Visibility forecast

Observer location: undefined°, undefined

Span
Click to sort rows by Start time (UTC) header in descending order
Start Az.
Max El. time (UTC)
Max El. Az.
Max El.
End time (UTC)
End Az.
6 mins2025-02-16 15:13:11.222Z44.742° NE2025-02-16 15:16:11.222Z80.334° E16.542°2025-02-16 15:19:11.222Z114.762° SE
9 mins2025-02-16 16:55:11.222Z347.158° N2025-02-16 16:59:11.222Z257.45° W40.087°2025-02-16 17:04:11.222Z197.714° SSW
10 mins2025-02-17 04:23:11.222Z165.486° S2025-02-17 04:27:11.222Z117.542° SE42.046°2025-02-17 04:33:11.222Z4.717° NNE
4 mins2025-02-17 06:09:11.222Z266.457° W2025-02-17 06:10:11.222Z278.214° WNW14.523°2025-02-17 06:13:11.222Z312.199° NW
|